Temp
-10 -10 -10 -10 -10 -10 -10 -10 -10 -10 -10 -10 -9 -9 -9 -9 -9 -9 -9 -9 -9 -9 -9 -9 -9 -9 -9 -9 -9 -9 -9 -9 -8 -8 -8 -8 -8 -8 -8 -8 -9 -9 -9 -10 -10
-10 -10 -10 -10 -9 -9 -9 -10 -10 -10 -10 -10 -9 -9 -9 -9 -9 -9 -9 -9 -9 -9 -9 -9 -9 -9 -9 -9 -9 -9 -9 -9 -9 -9 -8 -8 -8 -8 -8 -9 -9 -9 -9 -10 -10
-10 -10 -10 -10 -10 -10 -9 -9 -9 -10 -10 -10 -10 -10 -10 -9 -9 -9 -9 -9 -9 -9 -9 -9 -9 -9 -9 -9 -9 -9 -9 -9 -9 -9 -9 -9 -8 -8 -9 -9 -9 -9 -9 -10 -10
-10 -10 -10 -10 -10 -10 -10 -10 -9 -9 -10 -10 -10 -10 -10 -10 -10 -9 -9 -9 -9 -9 -9 -9 -9 -9 -9 -9 -9 -9 -9 -9 -9 -9 -9 -9 -9 -9 -9 -9 -9 -9 -10 -10 -10
-10 -10 -10 -10 -10 -10 -10 -10 -10 -10 -10 -10 -10 -10 -10 -10 -10 -10 -10 -10 -10 -10 -9 -9 -9 -9 -9 -9 -9 -9 -9 -9 -9 -9 -9 -9 -9 -9 -8 -9 -9 -9 -10 -10 -10
-11 -11 -10 -10 -10 -10 -10 -10 -10 -10 -10 -10 -10 -10 -10 -10 -10 -10 -10 -10 -10 -10 -10 -10 -10 -9 -9 -9 -9 -9 -9 -9 -9 -9 -9 -9 -9 -8 -8 -9 -9 -9 -10 -10 -10
-12 -11 -11 -10 -11 -10 -10 -10 -10 -10 -10 -10 -10 -10 -10 -10 -10 -10 -10 -10 -10 -10 -10 -10 -10 -10 -10 -9 -9 -9 -9 -9 -9 -9 -9 -9 -9 -8 -8 -9 -9 -10 -10 -10 -10
-12 -12 -11 -11 -11 -11 -11 -10 -10 -10 -10 -10 -10 -10 -10 -10 -10 -10 -10 -10 -10 -10 -10 -10 -10 -10 -10 -9 -9 -9 -9 -9 -9 -9 -9 -9 -9 -8 -9 -9 -9 -9 -9 -10 -10
-12 -12 -12 -12 -11 -11 -11 -11 -11 -11 -11 -10 -10 -10 -10 -10 -10 -10 -10 -10 -10 -10 -10 -10 -10 -10 -9 -9 -9 -9 -9 -9 -9 -9 -9 -9 -9 -8 -9 -9 -9 -9 -10 -10 -10
-12 -12 -12 -12 -12 -12 -11 -12 -11 -11 -11 -11 -11 -10 -10 -10 -10 -10 -10 -10 -10 -10 -10 -10 -10 -10 -10 -9 -9 -9 -9 -9 -9 -9 -9 -9 -9 -9 -9 -9 -9 -10 -10 -10 -10
-13 -12 -13 -13 -12 -12 -12 -12 -12 -11 -11 -11 -11 -11 -11 -11 -11 -10 -10 -10 -10 -10 -10 -10 -10 -10 -10 -9 -9 -9 -9 -9 -9 -9 -9 -9 -9 -9 -9 -9 -9 -10 -10 -10 -10
-13 -13 -12 -13 -13 -13 -12 -12 -12 -12 -12 -12 -11 -11 -11 -11 -11 -11 -10 -10 -10 -10 -10 -10 -10 -10 -10 -9 -9 -9 -9 -9 -9 -9 -9 -9 -9 -9 -9 -9 -10 -10 -10 -10 -10
-15 -14 -13 -13 -13 -13 -13 -12 -13 -12 -12 -12 -12 -12 -11 -11 -11 -11 -11 -11 -10 -10 -10 -10 -10 -10 -10 -10 -9 -9 -9 -9 -9 -9 -9 -9 -9 -9 -9 -9 -10 -10 -10 -10 -10
-14 -15 -14 -14 -13 -13 -13 -13 -13 -13 -12 -12 -12 -11 -12 -12 -11 -11 -11 -11 -11 -11 -10 -10 -10 -10 -10 -10 -10 -9 -9 -9 -9 -9 -9 -9 -9 -9 -9 -9 -10 -10 -10 -10 -10
-15 -15 -15 -15 -14 -14 -14 -14 -14 -13 -13 -12 -11 -12 -12 -12 -11 -11 -11 -11 -11 -10 -10 -10 -11 -10 -10 -11 -10 -10 -9 -9 -9 -9 -9 -10 -9 -9 -9 -9 -10 -10 -11 -11 -11
-16 -16 -15 -15 -15 -14 -14 -14 -15 -15 -12 -12 -11 -12 -12 -12 -12 -11 -11 -11 -11 -11 -11 -10 -10 -10 -11 -11 -11 -10 -10 -9 -9 -9 -9 -9 -9 -9 -9 -10 -10 -10 -11 -11 -11
-15 -16 -16 -15 -16 -15 -15 -15 -15 -14 -12 -12 -12 -12 -12 -12 -12 -12 -11 -11 -11 -11 -11 -11 -11 -11 -11 -11 -11 -11 -10 -10 -10 -10 -9 -10 -9 -9 -9 -9 -10 -11 -11 -11 -10
-16 -15 -16 -15 -16 -15 -16 -15 -15 -14 -13 -13 -12 -12 -12 -12 -12 -12 -12 -11 -11 -11 -11 -11 -11 -11 -11 -12 -11 -11 -11 -10 -10 -10 -10 -10 -10 -10 -9 -10 -10 -11 -11 -11 -11
-18 -18 -16 -15 -15 -16 -16 -16 -15 -14 -14 -13 -13 -13 -13 -13 -13 -12 -12 -12 -12 -12 -11 -11 -11 -11 -12 -12 -12 -11 -11 -11 -11 -10 -10 -10 -10 -10 -10 -10 -10 -11 -11 -11 -11
-20 -19 -18 -17 -16 -16 -16 -16 -15 -15 -15 -14 -14 -14 -13 -13 -13 -13 -13 -12 -12 -12 -12 -12 -12 -11 -12 -12 -12 -12 -11 -11 -11 -11 -10 -11 -11 -10 -10 -11 -11 -11 -11 -11 -11
-20 -20 -19 -18 -18 -18 -18 -16 -15 -16 -15 -16 -15 -14 -14 -14 -13 -13 -13 -13 -13 -13 -12 -13 -12 -12 -12 -12 -12 -12 -12 -12 -12 -11 -11 -11 -11 -11 -11 -11 -12 -11 -11 -11 -11
-20 -20 -20 -20 -19 -19 -18 -16 -16 -16 -16 -16 -16 -16 -15 -15 -14 -14 -13 -14 -13 -13 -13 -13 -13 -13 -12 -12 -12 -12 -12 -12 -11 -11 -11 -11 -10 -12 -11 -12 -12 -12 -11 -11 -11
-22 -21 -21 -20 -19 -19 -18 -17 -17 -17 -16 -16 -16 -16 -16 -15 -15 -15 -14 -14 -14 -14 -13 -13 -12 -13 -13 -12 -12 -12 -13 -13 -12 -12 -11 -11 -10 -12 -12 -12 -12 -12 -11 -12 -12
-23 -22 -21 -21 -20 -19 -19 -19 -18 -18 -17 -16 -16 -16 -16 -16 -15 -15 -15 -15 -15 -14 -14 -14 -13 -13 -13 -13 -12 -12 -13 -12 -12 -11 -11 -11 -12 -12 -12 -12 -12 -12 -11 -12 -12
-25 -24 -23 -21 -21 -20 -20 -19 -19 -19 -18 -17 -17 -16 -16 -16 -16 -15 -15 -15 -15 -15 -15 -14 -13 -14 -13 -13 -13 -12 -12 -12 -11 -12 -11 -12 -12 -13 -12 -12 -12 -11 -12 -11 -12
-26 -25 -24 -23 -22 -21 -20 -20 -19 -19 -19 -18 -17 -16 -17 -17 -16 -16 -16 -16 -16 -16 -16 -15 -14 -14 -14 -13 -13 -12 -12 -12 -12 -12 -11 -12 -12 -12 -11 -10 -10 -11 -11 -12 -12
-27 -26 -25 -24 -23 -22 -22 -21 -20 -19 -19 -19 -18 -18 -17 -17 -17 -17 -16 -16 -16 -16 -16 -16 -15 -15 -14 -14 -14 -12 -12 -12 -12 -12 -12 -12 -13 -12 -12 -12 -12 -11 -12 -12 -12
Height
5792 5795 5796 5797 5797 5797 5798 5799 5800 5801 5802 5803 5805 5806 5808 5810 5811 5813 5812 5814 5815 5816 5817 5816 5817 5818 5818 5819 5818 5818 5817 5815 5814 5813 5810 5807 5806 5805 5804 5802 5801 5800 5799 5798 5796
5787 5788 5791 5792 5794 5795 5796 5796 5798 5799 5801 5802 5804 5805 5807 5808 5810 5810 5809 5811 5813 5814 5815 5815 5815 5816 5817 5816 5815 5815 5814 5813 5811 5808 5806 5805 5803 5802 5802 5800 5798 5797 5795 5794 5792
5780 5782 5784 5787 5788 5790 5791 5794 5795 5797 5799 5800 5801 5802 5803 5805 5806 5807 5808 5810 5810 5811 5811 5813 5814 5814 5813 5813 5813 5812 5811 5809 5807 5805 5803 5802 5800 5800 5799 5797 5795 5794 5792 5790 5787
5773 5776 5778 5781 5784 5786 5788 5790 5792 5794 5795 5797 5798 5799 5800 5802 5805 5804 5805 5806 5807 5808 5810 5811 5811 5810 5811 5812 5810 5809 5807 5806 5804 5802 5801 5799 5798 5797 5796 5795 5793 5791 5789 5787 5784
5765 5768 5771 5774 5777 5780 5782 5785 5787 5789 5792 5794 5795 5796 5798 5800 5801 5802 5802 5803 5804 5805 5806 5807 5808 5809 5809 5807 5806 5805 5803 5801 5799 5799 5798 5797 5796 5794 5793 5792 5789 5788 5786 5783 5781
5756 5760 5763 5766 5770 5772 5775 5778 5781 5783 5786 5788 5790 5791 5793 5796 5797 5798 5798 5799 5801 5802 5803 5804 5805 5806 5804 5803 5802 5800 5799 5797 5797 5795 5794 5794 5793 5791 5790 5788 5786 5784 5782 5780 5777
5746 5751 5754 5757 5761 5764 5768 5771 5774 5776 5779 5782 5784 5786 5788 5791 5791 5793 5795 5796 5798 5799 5800 5801 5801 5801 5800 5799 5798 5796 5795 5794 5793 5792 5791 5790 5789 5788 5787 5785 5783 5781 5779 5777 5774
5737 5740 5745 5749 5753 5756 5759 5763 5766 5769 5772 5775 5777 5779 5782 5784 5786 5788 5790 5792 5793 5794 5795 5796 5796 5796 5796 5796 5794 5792 5791 5789 5789 5789 5788 5788 5786 5785 5784 5781 5779 5777 5775 5774 5771
5727 5731 5735 5740 5744 5747 5750 5755 5758 5761 5764 5767 5770 5773 5776 5778 5780 5782 5784 5786 5787 5789 5790 5791 5791 5792 5792 5791 5790 5788 5787 5785 5785 5785 5785 5784 5783 5782 5779 5778 5776 5774 5772 5771 5768
5717 5720 5725 5730 5733 5736 5741 5745 5750 5754 5757 5760 5762 5766 5770 5772 5773 5775 5778 5779 5781 5783 5785 5786 5787 5787 5787 5786 5786 5784 5783 5782 5781 5783 5781 5780 5779 5777 5776 5775 5773 5772 5770 5767 5764
5705 5710 5714 5719 5723 5727 5732 5736 5741 5747 5749 5752 5756 5758 5761 5764 5767 5769 5771 5773 5775 5777 5778 5780 5782 5781 5781 5781 5781 5780 5780 5779 5778 5778 5778 5776 5776 5774 5773 5771 5770 5769 5767 5764 5761
5692 5697 5705 5709 5713 5717 5721 5725 5730 5734 5738 5742 5747 5750 5753 5757 5759 5762 5765 5767 5768 5770 5771 5774 5775 5775 5776 5775 5776 5776 5776 5775 5775 5774 5774 5773 5772 5771 5770 5768 5767 5765 5764 5761 5758
5679 5684 5691 5697 5701 5707 5711 5715 5719 5722 5726 5731 5736 5741 5745 5748 5751 5754 5756 5758 5760 5762 5764 5765 5769 5769 5769 5770 5771 5771 5771 5771 5771 5769 5770 5769 5769 5768 5766 5764 5764 5762 5760 5757 5754
5665 5671 5677 5684 5690 5694 5700 5704 5709 5712 5713 5721 5725 5729 5734 5738 5740 5745 5747 5751 5752 5754 5755 5757 5760 5762 5763 5764 5765 5765 5766 5766 5766 5766 5766 5765 5766 5762 5763 5762 5760 5758 5756 5753 5751
5652 5660 5665 5671 5677 5683 5690 5692 5697 5701 5701 5711 5715 5719 5725 5728 5734 5736 5738 5740 5743 5744 5748 5749 5751 5753 5755 5757 5758 5760 5760 5761 5761 5762 5763 5761 5762 5761 5758 5757 5755 5754 5752 5749 5747
5637 5646 5652 5659 5665 5672 5677 5682 5686 5689 5687 5696 5704 5710 5714 5719 5722 5726 5728 5731 5734 5736 5738 5740 5743 5745 5747 5748 5751 5754 5755 5755 5756 5757 5758 5757 5757 5757 5755 5753 5751 5749 5748 5745 5744
5621 5632 5638 5646 5654 5659 5665 5669 5671 5671 5677 5686 5693 5700 5704 5709 5712 5716 5720 5722 5725 5727 5731 5733 5735 5737 5739 5741 5744 5747 5748 5749 5750 5751 5752 5752 5752 5751 5750 5749 5747 5745 5744 5742 5740
5604 5612 5623 5632 5639 5646 5651 5653 5651 5660 5666 5673 5681 5688 5694 5699 5703 5707 5711 5714 5716 5719 5722 5724 5727 5729 5732 5734 5736 5738 5741 5743 5742 5745 5747 5747 5748 5747 5745 5744 5742 5740 5739 5738 5736
5581 5592 5606 5617 5624 5630 5633 5633 5640 5649 5654 5661 5668 5676 5683 5688 5693 5697 5701 5705 5708 5710 5713 5715 5718 5721 5724 5726 5729 5732 5734 5736 5736 5737 5739 5742 5743 5742 5740 5739 5737 5736 5735 5734 5733
5562 5573 5590 5600 5606 5610 5611 5619 5628 5637 5642 5649 5656 5664 5671 5677 5682 5686 5690 5696 5699 5702 5703 5706 5709 5712 5715 5718 5721 5724 5727 5728 5729 5729 5731 5735 5738 5737 5735 5733 5732 5731 5730 5729 5728
5545 5555 5570 5583 5587 5587 5591 5605 5619 5626 5632 5637 5644 5651 5659 5665 5670 5675 5680 5686 5689 5693 5696 5698 5700 5705 5707 5710 5713 5715 5717 5720 5721 5722 5722 5725 5732 5732 5729 5727 5726 5726 5725 5725 5723
5528 5540 5552 5563 5567 5570 5580 5593 5605 5612 5620 5625 5633 5639 5645 5652 5658 5664 5670 5673 5679 5683 5688 5691 5691 5694 5697 5700 5703 5705 5708 5711 5713 5715 5715 5716 5725 5726 5724 5721 5719 5719 5719 5718 5718
5511 5524 5533 5542 5547 5556 5568 5577 5587 5596 5606 5613 5622 5628 5634 5640 5647 5652 5658 5662 5666 5671 5676 5681 5682 5687 5689 5692 5695 5698 5702 5703 5704 5704 5706 5711 5717 5718 5716 5714 5712 5711 5712 5712 5712
5497 5506 5514 5521 5532 5542 5553 5562 5571 5581 5590 5597 5609 5614 5621 5627 5634 5640 5647 5651 5655 5658 5663 5668 5672 5677 5682 5684 5687 5689 5692 5694 5694 5695 5703 5703 5709 5710 5707 5705 5704 5703 5705 5706 5705
5479 5488 5496 5505 5516 5526 5537 5546 5556 5565 5574 5582 5588 5600 5608 5614 5621 5628 5635 5639 5642 5646 5650 5655 5661 5667 5671 5674 5677 5680 5684 5685 5687 5693 5692 5700 5696 5702 5695 5694 5693 5694 5698 5699 5699
5467 5473 5482 5490 5501 5512 5521 5532 5541 5550 5556 5565 5573 5587 5593 5600 5610 5619 5624 5627 5631 5636 5640 5643 5649 5654 5659 5663 5666 5670 5674 5676 5681 5685 5686 5687 5694 5687 5686 5685 5687 5689 5690 5693 5694
5451 5458 5467 5476 5485 5496 5503 5513 5522 5528 5541 5549 5559 5567 5575 5589 5597 5601 5607 5612 5616 5621 5627 5631 5637 5642 5646 5651 5653 5657 5666 5669 5673 5676 5678 5680 5685 5679 5683 5682 5683 5681 5684 5687 5688
Wind_Speed
24 24 22 22 19 17 16 14 13 13 12 12 11 11 11 12 13 14 11 12 12 11 10 9 9 10 12 13 13 13 12 11 12 11 12 12 14 14 14 15 14 14 14 15 15
27 25 25 24 23 21 19 18 17 15 15 15 16 17 17 17 16 15 13 13 14 13 13 12 12 13 12 11 11 11 12 12 13 14 14 14 15 15 15 15 14 15 16 16 17
30 29 28 27 26 25 23 22 20 19 18 18 18 18 19 18 16 15 17 17 17 15 14 13 13 12 11 9 10 10 11 11 12 13 14 15 16 15 16 15 15 16 16 17 18
34 33 32 30 29 29 28 27 26 24 22 21 20 20 19 19 18 18 18 18 18 18 16 14 13 12 12 13 12 12 14 14 14 14 15 15 15 15 16 15 15 17 17 17 17
35 36 35 34 33 32 32 31 30 29 28 26 24 23 21 20 19 19 19 18 18 17 17 16 15 15 14 13 14 14 15 15 15 15 15 14 15 15 15 14 15 17 16 17 17
45 37 37 37 36 35 34 33 33 32 31 30 28 26 25 22 21 20 20 20 19 18 18 18 18 18 16 15 17 17 16 16 16 16 15 14 14 14 14 15 16 17 16 16 17
46 46 39 36 37 37 36 36 35 34 34 33 32 30 29 26 25 24 23 22 21 21 21 21 20 18 18 18 19 19 18 18 18 17 16 15 14 12 14 16 16 16 15 16 18
50 47 47 40 40 37 32 36 37 36 35 35 34 33 31 29 27 26 25 25 24 23 23 22 21 21 21 20 20 21 20 20 20 18 16 14 15 12 14 15 17 15 16 16 18
55 51 48 46 45 41 37 36 34 36 36 35 36 36 33 31 30 28 28 27 26 25 24 24 24 23 22 22 21 21 19 19 19 17 16 14 16 13 15 16 18 14 15 16 19
58 57 52 50 47 48 50 43 44 36 32 35 36 37 36 33 31 30 29 28 28 28 27 26 26 24 23 23 22 21 19 18 19 17 15 14 16 15 17 18 18 14 14 16 20
62 61 58 52 52 51 49 53 49 52 45 39 37 38 35 33 33 33 32 31 30 30 30 29 27 26 24 24 23 22 20 19 19 17 15 16 16 17 17 21 18 14 15 16 19
64 64 61 57 54 51 52 51 47 48 50 48 46 39 38 37 36 36 37 35 33 33 32 31 29 29 27 26 26 24 22 22 20 17 15 16 17 17 19 21 18 16 15 17 19
60 64 63 61 59 56 51 50 51 51 48 46 45 48 47 48 43 38 38 37 38 39 37 36 33 32 31 30 28 26 24 22 19 17 17 16 16 18 18 20 19 18 16 18 19
63 62 63 63 61 59 57 56 52 48 52 49 48 45 44 41 41 38 40 38 38 36 41 42 39 36 37 34 32 28 26 21 18 17 18 17 11 20 17 20 21 18 16 18 19
65 63 64 61 60 58 57 56 55 55 54 49 48 48 45 44 39 38 37 37 37 38 38 40 39 38 38 35 31 29 26 23 19 17 15 19 14 16 19 21 21 20 17 18 20
66 65 65 62 55 58 57 57 54 54 62 55 50 46 44 43 42 40 38 37 36 36 35 39 36 36 36 39 33 30 28 26 21 19 17 18 17 13 17 21 22 20 17 17 18
70 67 64 67 53 55 55 55 53 58 62 58 54 49 44 43 42 40 39 39 37 35 33 33 36 37 37 36 38 33 31 29 27 22 20 18 16 17 18 21 21 19 18 17 17
83 81 69 67 59 54 46 49 52 60 60 59 55 50 49 43 39 38 38 39 39 37 36 37 37 37 36 34 34 33 32 31 31 26 23 21 17 18 20 22 22 21 19 18 17
82 74 74 68 64 57 57 59 54 55 58 56 55 53 48 44 44 43 41 38 37 37 37 37 38 35 34 33 33 33 32 32 34 32 30 23 18 19 23 23 22 21 20 20 18
69 75 69 71 76 68 67 64 57 56 57 57 55 52 49 47 46 44 42 41 41 38 37 36 35 33 34 36 35 34 33 35 36 36 35 28 19 21 23 26 23 21 23 21 19
64 68 73 66 63 61 62 73 65 55 60 55 57 57 54 53 52 48 47 45 44 41 38 34 33 33 33 36 41 41 39 38 38 40 39 35 23 21 24 27 25 23 25 23 22
66 65 67 66 68 67 61 73 65 59 60 57 54 53 54 52 52 50 48 45 44 44 42 37 38 34 33 35 35 40 42 41 42 41 41 39 30 26 27 29 28 26 26 27 25
64 66 65 71 70 69 67 70 63 64 66 63 56 51 53 56 52 52 51 48 46 44 45 44 44 38 35 32 36 36 33 37 41 44 43 39 33 21 28 31 32 30 28 28 25
64 67 69 70 75 70 68 68 65 63 67 68 64 60 57 54 54 54 51 50 50 48 47 47 48 44 39 36 33 33 33 37 41 42 33 33 27 25 28 32 36 37 31 28 28
61 66 69 70 71 77 70 71 70 65 67 74 71 68 48 55 57 60 58 54 52 48 48 49 49 47 44 41 40 38 35 34 34 30 33 24 27 18 31 35 38 38 32 27 28
55 62 67 69 70 68 76 71 73 71 68 71 76 74 69 60 53 52 53 49 52 49 49 50 51 49 49 47 46 45 42 40 36 33 32 28 15 27 33 33 33 32 31 26 25
51 57 62 67 69 69 70 78 74 75 75 72 72 72 73 64 54 51 59 56 54 52 53 52 50 49 49 48 50 51 46 44 39 36 31 30 16 26 25 27 23 27 26 22 23
Wind_Direction
228 224 224 223 230 233 232 232 226 216 214 214 215 215 211 212 218 223 220 224 223 219 220 224 231 240 249 254 262 270 281 280 289 293 303 319 317 314 308 310 307 311 305 302 309
235 230 228 228 226 225 227 227 230 230 220 213 211 211 211 217 224 230 228 225 221 224 228 231 237 242 251 269 276 279 281 282 289 298 307 310 313 311 312 308 303 308 308 310 306
236 235 231 230 230 231 227 226 228 226 226 223 223 223 225 228 232 233 229 227 224 226 231 233 239 250 257 265 272 284 289 292 298 303 305 308 311 312 309 307 302 305 309 311 313
238 236 236 232 230 228 230 228 226 228 226 228 232 233 233 234 233 230 228 225 228 231 233 236 247 256 254 258 273 283 286 290 298 306 304 304 307 308 305 303 297 302 309 309 313
239 238 236 235 233 231 230 230 229 227 228 229 228 232 235 235 235 232 232 232 231 233 236 243 252 252 255 267 279 287 289 291 300 301 299 301 304 303 302 298 298 304 308 306 316
237 237 239 236 234 233 234 233 231 232 231 231 233 235 238 239 240 242 241 242 243 245 247 251 255 255 266 278 286 293 293 288 294 297 295 299 299 301 303 302 303 306 309 308 316
235 235 235 239 238 234 234 236 235 233 233 234 236 236 237 239 242 243 244 245 247 250 252 254 256 259 266 277 288 296 295 289 288 290 289 293 293 294 298 300 307 307 310 306 319
236 234 236 234 239 234 233 237 237 236 235 235 236 237 239 239 240 244 245 246 246 248 253 256 256 261 264 276 289 298 296 288 282 280 284 287 289 287 295 303 308 303 309 306 318
239 237 234 235 234 232 233 239 234 235 236 236 236 236 237 240 242 244 246 247 247 249 252 256 257 260 265 278 289 297 297 287 277 276 282 282 282 283 297 300 300 298 305 306 317
239 237 235 235 233 234 234 236 236 239 238 238 236 236 235 237 240 244 247 250 252 252 254 255 256 259 266 278 288 292 293 284 275 277 281 276 276 282 296 297 296 293 299 307 320
239 240 235 233 237 234 235 235 237 238 238 247 240 236 229 236 243 245 246 247 249 251 253 256 258 260 266 276 285 288 287 282 273 274 273 273 272 282 291 291 294 293 297 307 319
238 238 238 236 234 238 240 238 238 239 239 239 234 235 238 244 245 247 248 249 252 253 255 256 257 261 266 271 281 284 280 282 279 276 267 265 269 282 292 289 292 291 297 303 314
237 240 238 236 236 234 236 240 242 242 239 238 238 236 241 243 247 249 251 254 254 254 256 258 260 263 265 268 273 279 275 278 277 273 265 261 267 281 291 292 293 286 291 300 309
233 232 237 238 237 237 236 237 240 245 242 238 240 238 239 242 244 246 252 253 254 255 254 257 258 263 263 263 265 271 269 271 270 268 265 266 252 282 290 296 295 290 288 297 304
231 231 233 235 236 238 238 239 238 240 243 240 238 242 241 242 245 243 246 248 250 254 253 257 257 257 262 257 259 265 264 262 264 263 264 266 270 267 291 296 294 289 286 292 301
222 227 229 227 233 234 238 238 238 240 242 242 240 240 242 242 243 243 245 246 250 251 252 254 254 258 261 250 255 260 258 256 257 264 266 263 275 277 286 292 293 288 287 289 297
226 217 220 225 219 228 234 233 234 236 240 242 242 243 243 243 244 245 245 246 246 249 251 253 254 256 255 252 250 255 252 253 253 261 270 269 274 277 288 293 293 285 286 287 297
234 233 220 217 214 218 222 226 228 234 237 241 241 241 242 243 243 244 245 245 246 246 248 251 256 259 254 249 246 248 247 249 254 258 263 275 279 273 286 292 292 287 285 286 294
244 243 233 221 213 220 216 234 224 227 230 235 236 239 239 241 240 242 243 243 244 245 245 248 253 255 248 243 243 245 247 248 253 259 264 267 274 279 286 287 287 288 285 284 290
239 242 240 237 230 242 240 232 220 223 228 231 232 233 236 238 239 239 240 244 246 244 246 246 247 247 245 242 243 245 245 247 252 259 263 267 268 281 284 283 286 287 285 282 284
229 237 240 235 233 235 230 236 226 231 231 232 232 233 235 237 239 239 238 239 242 242 244 246 245 243 245 246 245 244 245 246 251 255 262 268 268 277 282 282 285 282 281 281 280
226 228 234 234 228 229 231 232 230 232 229 230 231 236 232 232 233 234 234 234 236 242 245 244 245 243 243 242 247 247 244 244 249 254 259 265 271 273 272 277 278 275 276 276 274
222 223 222 219 223 226 228 235 236 230 228 232 237 236 237 231 230 229 230 233 234 236 241 242 244 246 243 245 248 248 248 248 250 254 258 266 279 276 270 270 271 269 270 270 267
221 220 222 221 221 223 226 229 231 232 228 226 231 238 235 234 229 229 233 236 238 240 240 241 244 244 245 242 241 247 245 249 251 255 265 264 269 272 265 263 266 268 267 270 264
223 221 221 222 220 222 222 225 225 229 230 227 227 230 224 233 234 237 236 240 239 240 241 240 243 242 242 243 242 241 241 247 254 261 262 271 265 234 253 253 257 263 264 263 266
224 224 222 224 225 222 225 224 225 226 228 231 231 226 226 230 230 235 241 243 241 240 241 240 241 243 244 243 244 245 244 244 250 258 265 261 256 236 247 260 265 271 274 276 281
227 225 225 224 225 224 224 225 224 225 225 230 231 234 235 230 227 228 235 237 237 236 237 241 241 242 243 245 247 247 247 248 248 251 262 253 243 255 247 257 271 279 283 278 274